Wind_Gust
15 17 18 17 16 15 17 17 17 16 14 14 14 13 13 10 9 7 8 9 7 7 5 5 5 6 7 6 6 7 6 7 7 7 8 8 7 7 6 5 5 6
14 16 15 14 14 13 16 18 19 18 16 14 14 13 11 11 7 9 9 9 7 7 5 4 3 4 7 8 7 8 7 7 7 7 9 8 6 7 6 3 3 4
11 13 14 14 17 15 15 16 19 17 17 14 13 14 13 10 10 9 10 9 8 6 6 4 3 2 5 6 6 6 5 6 5 5 7 6 5 6 4 3 4 4
10 12 13 11 11 12 12 14 14 15 15 15 14 15 15 12 13 12 10 10 9 7 6 5 5 3 5 5 6 6 5 5 6 7 7 5 6 6 5 4 3 5
11 10 12 11 11 11 11 13 13 14 17 16 15 14 15 13 14 13 11 9 9 8 7 6 4 5 6 5 5 7 5 6 4 6 5 3 4 6 4 6 2 2
8 8 8 11 15 13 14 14 14 13 15 16 19 17 15 14 15 14 12 11 8 8 7 6 6 4 7 6 6 7 6 7 6 6 5 6 5 4 6 6 4 2
10 11 10 10 12 10 9 12 12 10 15 18 17 17 17 15 14 14 12 12 11 10 9 7 6 5 5 6 6 7 6 7 6 6 7 6 6 5 4 6 6 4
8 10 12 11 11 11 10 10 9 10 10 14 17 17 17 16 15 13 12 13 12 11 10 8 7 6 6 6 6 6 6 7 7 7 7 7 6 5 5 5 4 3
11 12 14 10 11 8 9 9 9 8 11 12 13 11 8 9 9 10 14 15 13 12 10 9 10 9 8 7 7 8 9 7 9 8 6 7 7 8 7 5 3 3
10 10 13 11 11 9 9 8 10 13 15 17 12 13 14 10 11 12 10 7 5 4 9 10 11 10 10 10 10 10 10 9 10 8 7 7 9 8 8 7 7 5
9 9 10 10 10 10 11 10 10 12 14 15 14 10 8 11 9 10 10 9 9 6 6 5 8 10 11 11 11 9 11 10 10 9 8 7 9 8 8 10 8 9
10 10 11 11 10 9 8 10 10 10 11 9 12 13 9 8 9 7 9 8 7 8 11 10 7 7 12 14 13 12 11 11 11 10 9 8 9 9 7 10 10 9
11 11 11 11 11 11 10 8 9 10 9 9 9 11 11 9 7 7 5 8 6 4 14 15 14 12 11 12 14 13 13 12 11 11 10 10 9 9 7 9 9 7
20 21 21 19 11 8 7 8 8 6 7 7 7 9 10 10 10 11 11 11 11 14 18 15 13 14 13 12 14 14 13 13 13 13 11 9 8 7 7 7 7 6
17 16 13 9 12 8 8 9 5 5 7 5 6 5 6 6 9 10 10 12 13 16 15 12 13 17 17 14 14 15 15 15 15 15 13 11 7 7 6 6 5 5
15 12 14 14 13 8 8 8 7 7 9 8 5 7 9 10 9 11 10 12 13 13 12 13 17 16 14 18 16 18 15 14 13 13 12 12 11 10 7 7 7 6
7 7 8 7 3 5 7 4 2 5 6 8 10 11 10 10 12 12 12 12 14 16 17 16 16 14 14 16 18 19 15 15 15 13 12 13 12 13 12 10 7 6
7 7 7 6 7 7 8 7 7 8 10 12 15 14 14 11 10 10 10 11 13 14 15 15 12 9 15 17 17 17 16 18 14 13 12 12 13 13 12 11 11 9
5 6 7 7 7 6 5 5 3 3 2 2 3 7 8 10 13 12 13 13 15 15 16 12 9 6 9 12 13 14 14 14 15 16 15 13 12 11 12 12 11 10
5 7 8 7 6 6 4 3 2 2 2 1 2 1 2 1 2 3 6 8 8 6 4 4 4 11 12 9 8 10 15 12 9 11 12 12 12 12 11 10 10 10
8 8 7 6 6 4 2 1 1 2 3 4 2 1 1 2 2 3 3 3 8 9 8 7 8 9 10 10 9 12 14 12 11 11 10 8 8 10 10 9 8 9
8 7 6 5 3 2 1 1 1 1 2 4 2 2 1 1 3 2 3 5 10 10 10 8 8 9 11 13 14 14 13 11 9 10 15 14 9 9 7 6 6 6
9 9 7 5 5 3 2 2 1 1 2 2 3 3 4 4 7 2 2 9 9 8 12 9 6 7 10 13 14 15 12 12 10 13 10 14 9 5 4 4 5 3
10 10 8 7 5 4 3 3 2 2 3 3 4 5 6 8 6 9 9 11 11 9 12 12 6 6 9 13 15 15 13 13 10 10 9 9 14 7 3 7 7 7
6 6 7 7 6 4 4 3 3 4 5 2 4 4 6 7 9 13 10 8 9 11 12 15 10 7 9 12 14 13 13 12 11 9 10 9 7 7 6 5 14 14
1 3 6 7 7 6 5 6 4 2 3 4 5 4 5 3 11 13 13 8 8 11 11 13 13 7 8 12 12 12 11 11 9 11 8 8 8 9 10 12 13 11
Wind_Speed
9 10 10 10 9 8 9 10 10 10 8 8 8 7 7 6 5 5 5 5 5 4 4 4 4 4 4 4 4 4 4 4 4 4 5 5 4 4 4 4 4 4
8 10 8 8 8 8 8 10 11 11 9 8 8 8 6 6 5 6 6 5 5 4 4 3 2 3 5 4 4 5 4 5 4 3 5 5 4 4 3 2 3 3
6 8 9 9 10 10 10 9 11 10 10 9 8 8 7 6 6 6 6 6 5 4 4 3 2 1 3 4 4 4 4 4 4 3 4 4 3 4 2 2 3 3
4 7 8 7 7 8 8 7 8 9 9 8 8 9 8 6 8 7 6 6 6 5 4 4 3 2 3 4 4 4 3 3 3 4 4 3 3 4 3 2 2 3
8 6 7 7 7 7 7 7 7 8 10 10 9 8 8 8 8 8 7 5 5 5 4 4 3 4 4 4 4 4 3 4 3 4 3 2 3 4 3 3 1 1
6 5 6 8 9 8 8 8 7 7 9 10 11 10 9 9 9 8 7 7 5 5 4 4 3 3 4 4 4 4 4 4 4 4 3 4 3 3 3 3 3 1
4 6 6 6 8 6 6 8 7 6 9 11 10 10 10 9 9 9 8 8 7 6 6 4 4 3 3 4 4 4 4 5 4 4 4 4 4 3 1 3 3 2
4 5 6 6 7 7 6 6 6 4 6 8 11 10 10 10 10 8 8 8 8 7 7 5 4 4 4 3 4 4 4 4 4 4 4 4 4 4 3 3 3 2
4 7 7 6 7 6 6 6 6 5 7 7 7 6 4 5 6 6 7 8 8 7 6 6 6 6 5 4 4 5 5 4 6 5 4 5 5 5 5 3 3 1
4 5 7 7 7 6 6 5 6 8 9 9 8 8 8 6 7 7 6 5 3 1 2 5 7 6 6 6 6 6 6 5 6 5 4 5 6 5 5 5 5 4
5 5 6 6 6 6 7 6 7 8 8 9 7 6 5 7 6 6 6 5 5 4 2 0 3 4 7 6 6 6 7 6 6 6 5 5 6 6 6 6 5 5
6 6 7 7 7 6 5 6 6 7 7 6 8 7 5 4 6 5 6 5 4 3 1 2 1 3 5 8 8 7 7 7 7 6 6 5 6 6 4 6 6 6
7 6 4 6 7 7 7 5 5 5 5 5 4 6 7 6 4 4 4 5 3 1 4 5 6 5 5 7 8 8 8 7 7 7 6 6 5 6 4 5 6 4
9 9 11 12 6 4 4 5 5 3 3 5 5 5 5 6 6 6 5 5 6 6 10 10 7 8 8 8 8 8 8 8 8 8 7 6 5 5 5 5 4 4
5 7 9 5 5 3 4 4 3 3 4 0 2 3 3 3 3 4 4 4 5 8 9 7 7 8 8 8 8 9 9 9 9 9 8 7 5 5 4 4 4 4
7 6 7 8 8 4 3 2 2 3 6 5 3 3 3 4 5 6 6 7 8 8 7 6 6 6 9 14 13 10 9 8 8 8 8 7 7 6 5 5 5 4
4 4 4 4 3 4 4 3 1 3 3 1 3 3 4 3 4 5 6 6 8 8 8 7 7 7 13 14 15 17 10 9 9 8 8 8 8 8 7 6 5 4
5 5 5 4 4 4 4 4 3 3 5 6 7 7 8 7 6 6 5 5 5 6 5 6 6 8 12 14 15 15 13 10 8 7 6 7 8 8 7 7 6 5
4 4 5 4 4 4 3 4 3 2 0 1 2 5 6 7 8 7 7 7 6 5 6 5 5 5 8 10 11 12 12 8 6 8 9 8 7 7 7 7 7 6
4 5 5 4 4 4 3 2 2 1 1 1 0 0 1 0 0 3 5 5 4 4 1 1 2 8 8 7 4 5 9 7 5 5 4 6 6 7 6 6 6 7
5 5 5 5 4 3 1 0 0 0 1 3 2 0 0 1 0 1 2 2 5 6 5 4 4 8 8 9 7 10 11 10 6 6 6 4 3 5 6 5 5 5
5 5 4 4 2 2 1 1 1 1 0 2 1 1 0 1 1 0 2 2 5 6 6 5 4 8 10 11 12 12 10 5 5 5 6 6 6 4 4 3 3 4
6 6 5 4 4 3 2 1 0 0 1 0 1 2 3 2 4 1 1 6 4 5 7 5 4 5 9 11 11 12 10 7 6 7 6 6 3 3 2 2 1 1
7 6 5 5 4 3 2 2 1 0 2 2 2 4 3 5 2 5 3 6 7 6 7 7 4 5 8 10 12 12 10 7 5 6 6 5 6 4 1 4 3 1
4 5 5 5 4 3 3 2 2 2 3 1 2 2 4 3 6 6 5 4 5 7 9 10 6 5 8 11 11 10 8 7 7 6 6 6 5 5 4 3 8 8
1 2 5 4 5 4 3 4 3 0 1 3 4 2 3 2 5 5 6 5 5 7 6 7 8 5 5 10 10 10 9 6 5 6 5 4 4 5 5 5 6 6
Wind_Direction
163 154 154 154 158 159 160 150 152 152 154 151 151 158 152 161 151 125 127 121 119 115 98 95 88 88 91 94 97 89 91 99 96 96 94 93 91 92 83 69 65 102
165 156 156 153 152 161 167 157 155 154 158 158 156 147 151 144 145 128 127 124 120 127 129 113 113 97 98 107 103 100 94 101 111 115 106 98 105 94 89 83 86 103
152 155 153 162 164 167 169 167 156 154 155 160 147 145 150 144 137 134 134 130 126 129 133 140 128 96 110 113 116 113 116 123 123 116 121 134 122 110 136 95 62 91
180 158 154 160 159 165 165 159 156 148 144 140 153 153 149 147 140 140 142 139 139 147 154 152 161 144 144 127 122 137 139 137 147 128 123 125 129 128 144 106 99 78
193 169 152 156 164 159 156 156 158 147 147 150 143 146 143 143 143 144 144 146 148 155 155 170 166 152 163 143 135 147 133 142 135 114 114 113 151 131 158 109 80 42
169 157 150 155 164 160 156 159 164 149 141 142 152 151 151 150 149 149 151 150 155 153 164 168 177 173 170 160 137 161 143 149 168 134 137 145 157 152 138 143 143 163
128 119 117 124 142 150 146 155 160 156 151 151 146 152 152 152 152 155 156 157 158 162 168 177 180 191 181 163 143 177 155 171 187 155 166 181 162 193 167 152 173 185
151 117 115 113 121 132 128 122 114 124 133 142 148 157 154 154 156 160 161 159 162 168 169 174 180 183 194 168 160 184 176 177 194 178 171 189 174 184 190 184 163 158
152 134 133 133 125 127 123 112 114 105 100 116 127 112 100 123 148 154 163 162 164 170 169 176 182 185 191 175 185 184 196 189 190 195 177 181 186 191 186 176 166 202
167 161 137 138 135 138 111 106 103 96 101 105 117 126 125 123 117 106 90 82 73 74 186 186 185 188 188 191 193 190 200 192 194 193 191 176 189 190 181 178 181 188
155 133 119 124 123 121 123 117 107 104 105 112 112 114 125 120 112 113 102 90 99 110 113 193 250 212 195 198 202 196 195 192 192 194 194 186 193 200 180 181 185 185
118 113 112 113 113 109 111 115 113 113 117 119 124 122 113 114 117 108 119 128 117 86 10 308 239 228 226 206 202 200 194 195 194 193 197 190 194 202 190 180 183 195
45 42 60 107 123 126 120 109 111 126 129 137 141 133 134 131 126 121 129 115 106 52 330 279 265 266 251 236 218 202 196 192 196 195 197 201 196 196 182 167 166 166
78 58 17 352 356 83 101 110 120 120 134 146 146 149 155 161 171 180 189 175 176 197 217 225 228 237 243 232 225 212 197 196 192 190 195 200 194 185 166 170 167 157
80 111 135 147 283 307 104 123 123 111 79 27 163 168 167 184 172 175 184 201 211 215 223 213 210 221 230 230 218 219 208 198 191 189 186 182 177 171 157 145 138 125
156 149 143 153 188 192 152 119 136 134 146 190 200 218 211 195 187 192 192 199 208 219 223 223 227 231 235 233 220 214 207 199 194 189 176 165 165 158 148 143 143 122
99 106 94 100 111 82 80 81 126 139 143 190 238 241 247 242 216 212 214 211 212 217 220 221 227 233 229 225 226 215 194 191 184 184 172 168 168 161 157 148 129 134
135 135 121 131 111 134 132 144 152 178 201 203 212 214 214 209 208 218 225 221 225 239 247 245 241 244 237 232 224 214 197 189 175 159 166 169 170 163 159 152 162 157
105 105 116 113 112 104 90 76 66 50 38 118 170 189 183 190 210 211 212 214 219 234 246 254 256 272 287 268 238 204 199 160 166 177 176 173 163 158 157 163 167 160
86 100 101 102 91 73 61 37 44 343 288 249 214 61 97 57 169 179 169 164 195 205 198 14 21 353 344 338 261 179 163 155 163 153 131 134 149 149 143 140 147 145
115 107 107 101 96 104 95 209 226 288 344 333 317 137 89 11 191 247 246 130 110 113 95 53 14 13 46 55 96 146 144 127 127 132 140 114 104 112 122 132 151 150
128 122 119 122 119 120 150 222 240 214 271 304 7 317 234 186 339 100 244 116 111 112 101 75 44 47 69 73 80 79 71 65 76 86 96 110 108 112 123 140 142 158
136 136 145 155 165 165 211 226 195 352 299 282 342 305 259 219 235 236 125 111 110 104 105 104 78 55 84 81 71 70 70 53 55 63 56 74 70 102 125 126 119 91
157 152 162 174 157 174 217 244 250 290 285 277 256 270 263 239 161 82 86 126 128 129 128 120 96 51 75 83 82 81 87 81 72 75 63 58 39 359 40 222 213 38
151 147 155 159 163 200 190 196 217 234 251 271 248 232 242 231 119 117 103 100 120 126 128 121 116 91 100 100 92 90 90 93 89 83 69 37 35 17 19 33 50 35
78 147 159 164 186 211 206 193 201 184 317 314 310 295 306 68 114 116 123 125 125 125 130 135 123 116 120 108 100 92 91 89 80 90 82 62 47 38 36 59 66 69